DLH2A EDDS-EDDF

Flight info

Callsign DLH2A
Flight time 0h 24m
Altitude 20000
Route ETASA4B/25 ETASA T163 SPESA SPESA5B
Aircraft A320/M-SDE3FGHIRWY/LB1

Departure

Time 2026-05-07 20:24
Airport Stuttgart Airport (EDDS)

Arrival

Time 2026-05-07 20:48
Airport Frankfurt Main Airport (EDDF)
Time Latitude Longitude Altitude Speed Heading
2026-05-07 20:02 48.68914 9.19513 1315 ft 0 kts 344°
2026-05-07 20:08 48.68909 9.19515 1315 ft 4 kts 344°
2026-05-07 20:09 48.68882 9.19527 1313 ft 4 kts 344°
2026-05-07 20:09 48.68858 9.19537 1312 ft 4 kts 358°
2026-05-07 20:09 48.68837 9.19527 1311 ft 4 kts 59°
2026-05-07 20:10 48.68827 9.19491 1312 ft 2 kts 74°
2026-05-07 20:10 48.68828 9.19494 1312 ft 0 kts 74°
2026-05-07 20:13 48.68831 9.19510 1311 ft 7 kts 75°
2026-05-07 20:13 48.68861 9.19673 1308 ft 23 kts 75°
2026-05-07 20:13 48.68836 9.19900 1299 ft 23 kts 155°
2026-05-07 20:14 48.68823 9.20007 1295 ft 3 kts 42°
2026-05-07 20:14 48.68850 9.20094 1293 ft 20 kts 76°
2026-05-07 20:14 48.68906 9.20388 1286 ft 37 kts 73°
2026-05-07 20:14 48.68962 9.20686 1280 ft 5 kts 75°
2026-05-07 20:15 48.68976 9.20759 1278 ft 13 kts 73°
2026-05-07 20:15 48.69006 9.20916 1274 ft 15 kts 73°
2026-05-07 20:15 48.69019 9.20987 1272 ft 4 kts 74°
2026-05-07 20:15 48.69045 9.21120 1269 ft 22 kts 73°
2026-05-07 20:16 48.69092 9.21372 1271 ft 24 kts 73°
2026-05-07 20:16 48.69143 9.21643 1256 ft 28 kts 73°
2026-05-07 20:16 48.69193 9.21899 1258 ft 23 kts 73°
2026-05-07 20:16 48.69240 9.22136 1249 ft 22 kts 68°
2026-05-07 20:17 48.69278 9.22347 1243 ft 20 kts 73°
2026-05-07 20:17 48.69309 9.22517 1249 ft 16 kts 75°
2026-05-07 20:17 48.69345 9.22709 1232 ft 22 kts 74°
2026-05-07 20:17 48.69391 9.22948 1227 ft 26 kts 75°
2026-05-07 20:18 48.69446 9.23225 1221 ft 29 kts 72°
2026-05-07 20:18 48.69498 9.23510 1215 ft 27 kts 73°
2026-05-07 20:18 48.69525 9.23681 1211 ft 9 kts 101°
2026-05-07 20:18 48.69470 9.23747 1208 ft 9 kts 170°
2026-05-07 20:19 48.69428 9.23746 1206 ft 4 kts 194°
2026-05-07 20:19 48.69418 9.23741 1206 ft 1 kts 201°
2026-05-07 20:19 48.69414 9.23737 1206 ft 0 kts 207°
2026-05-07 20:20 48.69409 9.23731 1206 ft 0 kts 214°
2026-05-07 20:22 48.69406 9.23728 1206 ft 1 kts 216°
2026-05-07 20:22 48.69394 9.23713 1205 ft 4 kts 220°
2026-05-07 20:22 48.69348 9.23646 1206 ft 18 kts 225°
2026-05-07 20:23 48.69235 9.23479 1208 ft 23 kts 231°
2026-05-07 20:23 48.69222 9.23432 1209 ft 1 kts 255°
2026-05-07 20:23 48.69185 9.23236 1212 ft 57 kts 254°
2026-05-07 20:23 48.69009 9.22303 1233 ft 124 kts 254°
2026-05-07 20:24 48.68725 9.20814 1447 ft 158 kts 255°
2026-05-07 20:24 48.68427 9.19217 2215 ft 158 kts 255°
2026-05-07 20:24 48.68122 9.17603 2885 ft 165 kts 254°
2026-05-07 20:24 48.67775 9.15823 3286 ft 188 kts 253°
2026-05-07 20:25 48.67378 9.13823 3644 ft 210 kts 253°
2026-05-07 20:25 48.66981 9.11549 4051 ft 236 kts 264°
2026-05-07 20:25 48.67366 9.09112 4828 ft 246 kts 302°
2026-05-07 20:25 48.68434 9.07128 5838 ft 248 kts 320°
2026-05-07 20:26 48.69995 9.05948 6671 ft 262 kts 343°
2026-05-07 20:26 48.71798 9.05185 7424 ft 274 kts 342°
2026-05-07 20:26 48.73632 9.04325 8362 ft 279 kts 340°
2026-05-07 20:26 48.75490 9.03401 9324 ft 284 kts 339°
2026-05-07 20:27 48.77388 9.02473 10249 ft 290 kts 344°
2026-05-07 20:27 48.79476 9.02109 10669 ft 317 kts
2026-05-07 20:27 48.81726 9.02750 10988 ft 344 kts 18°
2026-05-07 20:27 48.83896 9.04472 11517 ft 359 kts 31°
2026-05-07 20:28 48.86135 9.06030 12256 ft 362 kts 11°
2026-05-07 20:28 48.88624 9.06052 13042 ft 362 kts 345°
2026-05-07 20:28 48.90893 9.04453 13843 ft 363 kts 323°
2026-05-07 20:28 48.93001 9.02326 14572 ft 367 kts 333°
2026-05-07 20:29 48.95492 9.01398 15262 ft 376 kts 358°
2026-05-07 20:29 48.98090 9.02032 15976 ft 382 kts 14°
2026-05-07 20:29 49.00642 9.03249 16690 ft 386 kts 17°
2026-05-07 20:29 49.03192 9.04585 17376 ft 390 kts 17°
2026-05-07 20:30 49.06176 9.06046 17710 ft 406 kts 14°
2026-05-07 20:30 49.16838 9.10018 18936 ft 440 kts 10°
2026-05-07 20:30 49.23935 9.12411 20027 ft 443 kts 11°
2026-05-07 20:30 49.26939 9.13464 20083 ft 442 kts 11°
2026-05-07 20:31 49.29937 9.14533 20076 ft 442 kts 11°
2026-05-07 20:31 49.32932 9.15610 20078 ft 442 kts 11°
2026-05-07 20:31 49.35926 9.16687 20080 ft 442 kts 11°
2026-05-07 20:31 49.38918 9.17763 20085 ft 442 kts 11°
2026-05-07 20:32 49.42702 9.19117 20068 ft 441 kts 11°
2026-05-07 20:32 49.54925 9.23487 20095 ft 441 kts 11°
2026-05-07 20:32 49.67037 9.27867 20062 ft 441 kts 11°
2026-05-07 20:32 49.78837 9.31927 20037 ft 438 kts
2026-05-07 20:33 49.88458 9.22702 19870 ft 424 kts 294°
2026-05-07 20:33 49.90045 9.14719 19409 ft 398 kts 285°
2026-05-07 20:33 49.90815 9.10632 18881 ft 392 kts 286°
2026-05-07 20:33 49.91588 9.06596 18262 ft 389 kts 286°
2026-05-07 20:34 49.92358 9.02590 17571 ft 385 kts 286°
2026-05-07 20:34 49.93119 8.98634 16923 ft 382 kts 286°
2026-05-07 20:34 49.93865 8.94756 16309 ft 378 kts 286°
2026-05-07 20:34 49.94616 8.90855 15705 ft 375 kts 286°
2026-05-07 20:35 49.95899 8.84151 14696 ft 370 kts 285°
2026-05-07 20:35 49.97131 8.76852 13579 ft 364 kts 278°
2026-05-07 20:35 49.97178 8.69081 12327 ft 359 kts 262°
2026-05-07 20:35 49.95845 8.61694 11049 ft 355 kts 250°
2026-05-07 20:36 49.94118 8.54563 9841 ft 348 kts 250°
2026-05-07 20:36 49.92602 8.48276 9603 ft 317 kts 250°
2026-05-07 20:36 49.91848 8.45138 9455 ft 304 kts 250°
2026-05-07 20:36 49.91137 8.42183 9279 ft 287 kts 250°
2026-05-07 20:37 49.90449 8.39333 8719 ft 279 kts 250°
2026-05-07 20:37 49.89771 8.36542 8072 ft 274 kts 250°
2026-05-07 20:37 49.89103 8.33790 7420 ft 271 kts 250°
2026-05-07 20:37 49.88445 8.31077 6761 ft 268 kts 250°
2026-05-07 20:38 49.87790 8.28388 6078 ft 265 kts 250°
2026-05-07 20:38 49.87142 8.25725 5355 ft 264 kts 250°
2026-05-07 20:38 49.86504 8.23101 4624 ft 265 kts 250°
2026-05-07 20:38 49.85844 8.20393 4156 ft 265 kts 250°
2026-05-07 20:39 49.85206 8.17774 3997 ft 263 kts 250°
2026-05-07 20:39 49.84681 8.15103 4000 ft 250 kts 264°
2026-05-07 20:39 49.84775 8.12540 4006 ft 231 kts 286°
2026-05-07 20:39 49.85425 8.10386 4008 ft 214 kts 308°
2026-05-07 20:40 49.86472 8.08814 4005 ft 209 kts 328°
2026-05-07 20:40 49.87789 8.07900 4012 ft 207 kts 347°
2026-05-07 20:40 49.89218 8.07731 4012 ft 207 kts
2026-05-07 20:40 49.90596 8.08321 4013 ft 207 kts 26°
2026-05-07 20:41 49.91753 8.09583 4014 ft 207 kts 45°
2026-05-07 20:41 49.92574 8.11408 4016 ft 208 kts 66°
2026-05-07 20:41 49.93095 8.13509 4016 ft 209 kts 69°
2026-05-07 20:41 49.93610 8.15617 4016 ft 209 kts 68°
2026-05-07 20:42 49.94125 8.17725 4016 ft 209 kts 68°
2026-05-07 20:42 49.94639 8.19835 4016 ft 209 kts 69°
2026-05-07 20:42 49.95153 8.21945 4016 ft 209 kts 68°
2026-05-07 20:42 49.95655 8.24013 4016 ft 203 kts 68°
2026-05-07 20:43 49.96139 8.26006 3972 ft 193 kts 68°
2026-05-07 20:43 49.96605 8.27924 3801 ft 185 kts 68°
2026-05-07 20:43 49.97040 8.29723 3572 ft 172 kts 68°
2026-05-07 20:43 49.97449 8.31409 3370 ft 159 kts 68°
2026-05-07 20:44 49.97816 8.32926 3147 ft 143 kts 68°
2026-05-07 20:44 49.98156 8.34332 2951 ft 136 kts 68°
2026-05-07 20:44 49.98485 8.35692 2777 ft 133 kts 69°
2026-05-07 20:44 49.98806 8.37030 2599 ft 131 kts 69°
2026-05-07 20:45 49.99120 8.38340 2425 ft 130 kts 69°
2026-05-07 20:45 49.99438 8.39653 2247 ft 130 kts 69°
2026-05-07 20:45 49.99759 8.40959 2076 ft 129 kts 69°
2026-05-07 20:45 50.00073 8.42258 1883 ft 128 kts 70°
2026-05-07 20:46 50.00384 8.43554 1695 ft 128 kts 70°
2026-05-07 20:46 50.00696 8.44848 1488 ft 128 kts 69°
2026-05-07 20:46 50.01009 8.46144 1321 ft 128 kts 69°
2026-05-07 20:46 50.01320 8.47449 1161 ft 129 kts 70°
2026-05-07 20:47 50.01630 8.48733 1004 ft 129 kts 70°
2026-05-07 20:47 50.01948 8.50051 826 ft 128 kts 69°
2026-05-07 20:47 50.02253 8.51332 664 ft 127 kts 69°
2026-05-07 20:47 50.02562 8.52620 489 ft 127 kts 70°
2026-05-07 20:48 50.02868 8.53895 350 ft 121 kts 69°
2026-05-07 20:48 50.03132 8.54990 350 ft 85 kts 70°
2026-05-07 20:48 50.03286 8.55603 351 ft 49 kts 58°
2026-05-07 20:48 50.03444 8.55861 350 ft 10 kts 40°
2026-05-07 20:49 50.03451 8.55871 350 ft 0 kts 40°
2026-05-07 20:49 50.03452 8.55872 350 ft 1 kts 40°
2026-05-07 20:50 50.03494 8.55932 351 ft 10 kts 43°
2026-05-07 20:50 50.03552 8.55976 355 ft 8 kts
2026-05-07 20:50 50.03588 8.55907 349 ft 14 kts 272°
2026-05-07 20:50 50.03544 8.55699 353 ft 25 kts 253°
2026-05-07 20:51 50.03548 8.55536 350 ft 22 kts 323°
2026-05-07 20:51 50.03685 8.55543 348 ft 20 kts 11°
2026-05-07 20:51 50.03823 8.55526 356 ft 19 kts 340°
2026-05-07 20:51 50.03871 8.55497 349 ft 0 kts 340°
2026-05-07 20:53 50.03898 8.55484 354 ft 11 kts 343°
2026-05-07 20:53 50.03954 8.55547 354 ft 13 kts 69°
2026-05-07 20:53 50.03992 8.55714 351 ft 21 kts 69°
2026-05-07 20:53 50.04053 8.55970 355 ft 26 kts 68°
2026-05-07 20:54 50.04126 8.56228 356 ft 25 kts 56°
2026-05-07 20:54 50.04254 8.56206 357 ft 20 kts 336°
2026-05-07 20:54 50.04354 8.56050 363 ft 21 kts 328°
2026-05-07 20:54 50.04456 8.56137 361 ft 17 kts 69°
2026-05-07 20:55 50.04503 8.56320 359 ft 20 kts 75°
2026-05-07 20:55 50.04593 8.56469 358 ft 21 kts 22°
2026-05-07 20:55 50.04723 8.56574 359 ft 18 kts 40°
2026-05-07 20:55 50.04750 8.56630 358 ft 1 kts 69°
2026-05-07 20:56 50.04751 8.56640 361 ft 0 kts 76°
2026-05-07 20:56 50.04743 8.56649 362 ft 3 kts 162°
2026-05-07 20:56 50.04741 8.56671 361 ft 0 kts 81°
2026-05-07 20:56 50.04742 8.56676 360 ft 0 kts 75°